FENGYUN 1C DEB

Satellite information

Favourite Embed

Satellite Type and Status

DEBRISIN ORBIT

Key statistics

Satellite FENGYUN 1C DEB at a glance.

Uptime

9715

Days in orbit

Revolutions

≈ 14.3

Per day

Orbit

SSO

Sun Synchronous Orbit

Inclination

98.8

Latest

Satellite identification and parameters

Extended collection of information and parameters for FENGYUN 1C DEB.

Object identification

Identified? True

Debris? True

Object name: FENGYUN 1C DEB

International designator: 1999-025AZK

Object number (NORAD): 30921

Object ID (CCSDS): 30921

Country: PEOPLES REPUBLIC OF CHINA (PRC)

Current information (Y/N): Y

RCS size: SMALL

Orbital parameters

Period: 100.507 minutes

Inclination: 98.8426 deg

SMA: 7160.715 km

Apoapsis: 794.614 km

Periapsis: 770.546 km

RAAN: 74.7006 deg

Eccentricy: 0.00168056

Argument of periapsis: 36.1618 deg

Mean anomaly: 352.9936 deg

Mean motion: 14.32742746 rev/day

Mean motion (dot): 0.00006901 rev/day2

B* drag term: 0.0025449888 1/REarth

Two-line elements (TLE)

Creation date: Dec. 13, 2025, 5:47 p.m.

Reference frame: TEME

Reference center: EARTH

Epoch: Dec. 13, 2025, 5:05 a.m. UTC

TLE line 0: 0 FENGYUN 1C DEB

TLE line 1: 1 30921U 99025AZK 25347.21234988 .00006901 00000-0 25450-2 0 9992

TLE line 2: 2 30921 98.8426 74.7006 0016806 36.1618 352.9936 14.32742746968318

Live tracking on map

Real-time ground track for satellite FENGYUN 1C DEB.

In-orbit conjunctions

A list of the most updated potential collisions computed for object FENGYUN 1C DEB.

Target Orbit TCA Probability of collision Miss distance Type
SL-8 R/B LEO 2025-11-22 18:07:15 0.0001090259 351.0 (m) ROCKET BODY
CZ-6A DEB LEO 2025-03-23 20:33:10 0.0002255657 234.0 (m) DEBRIS
RADCAL LEO 2024-07-19 03:02:27 0.0004917162 274.0 (m) PAYLOAD

Associated space launch

Chinese polar orbiting meteorological satellite

FENGYUN 1C DEB was lifted into orbit during the mission ‘Long March 4B | Feng Yun 1C’, on board a Long March 4B space rocket.

The launch took place on May 10, 1999, 1:33 a.m. from Launch Complex 7.

For more information about the launch, click the button.

Launch to space Long March 4B | Feng Yun 1C
Long March 4B | Feng Yun 1C

Agency: N/A

Status: Launch Successful

Launch date: May 10, 1999, 1:33 a.m. UTC

Rocket: Long March 4B

Launch pad: Launch Complex 7

Location: Taiyuan Satellite Launch Center, People's Republic of China

...

Latest news about this satellite

There are no fresh news available about this satellite. Check back as we update our databases every day.


Newsletter sign-up

Weekly statistics, charts and insights to help you stay on top of the space industry.